Fairfield - Fairfield Municipal Airport
Tuesday 10:15 PM
Temperature64° (77°/55°)
Dew Point61°
Relative Humidity88
%
Visibility10
mi
Pressure1005.1
mb
Wind DirectionWSW
240°
Wind Speed5
mph
Precipitation Today0.00"

Last 30 Observations

Time PresWx Temp DP Feels RH% Vsby Pressure Ceiling Direction Speed 1h Precip
9:55 PM 66° 61° 83
%
10
mi
1005.1
mb
WSW
240°
6
mph
0.00"
9:35 PM 66° 61° 83
%
10
mi
1004.8
mb
SW
230°
7
mph
0.00"
9:15 PM 68° 61° 78
%
10
mi
1004.4
mb
SW
220°
6
mph
0.00"
8:55 PM 68° 61° 78
%
10
mi
1004.4
mb
SSW
210°
7
mph
0.00"
8:35 PM 68° 61° 78
%
10
mi
1004.1
mb
SSW
210°
6
mph
0.00"
8:15 PM 70° 61° 73
%
10
mi
1004.1
mb
SW
230°
5
mph
0.00"
7:55 PM 70° 63° 78
%
10
mi
1004.1
mb
SW
230°
6
mph
0.00"
7:35 PM 72° 63° 73
%
10
mi
1004.1
mb
WSW
250°
7
mph
0.00"
7:15 PM 73° 63° 69
%
10
mi
1004.1
mb
WSW
250°
7
mph
0.00"
6:55 PM 75° 63° 65
%
10
mi
1004.1
mb
WSW
250°
10
mph
0.00"
6:35 PM 75° 63° 65
%
10
mi
1004.1
mb
WSW
250°
11
mph
0.00"
6:15 PM 77° 63° 61
%
10
mi
1004.1
mb
WSW
240°
13
mph
(G21)
0.00"
5:55 PM 77° 63° 61
%
10
mi
1004.1
mb
WSW
240°
13
mph
(G23)
0.00"
5:35 PM 77° 63° 61
%
10
mi
1003.7
mb
SW
230°
17
mph
0.00"
5:15 PM 77° 63° 61
%
10
mi
1003.7
mb
SW
220°
14
mph
(G23)
0.00"
4:55 PM 75° 63° 65
%
10
mi
1003.7
mb
SW
230°
13
mph
(G22)
0.00"
4:35 PM 75° 63° 65
%
10
mi
1004.1
mb
WSW
240°
14
mph
0.00"
4:15 PM 75° 63° 65
%
10
mi
1004.4
mb
WSW
250°
14
mph
(G22)
0.00"
3:55 PM 75° 63° 65
%
10
mi
1004.4
mb
SW
220°
14
mph
(G24)
0.00"
3:35 PM 75° 63° 65
%
10
mi
1004.4
mb
SW
230°
22
mph
0.00"
3:15 PM 75° 64° 69
%
10
mi
1004.8
mb
SSW
210°
20
mph
(G29)
0.00"
2:55 PM 75° 64° 69
%
10
mi
1005.1
mb
SSW
210°
17
mph
(G24)
0.00"
2:35 PM 75° 64° 69
%
10
mi
1005.4
mb
SSW
210°
15
mph
(G24)
0.00"
2:15 PM 75° 64° 69
%
10
mi
1005.4
mb
SW
220°
21
mph
0.00"
1:55 PM 73° 64° 73
%
10
mi
1005.1
mb
SSW
210°
17
mph
(G24)
0.00"
1:35 PM 73° 64° 73
%
10
mi
1005.4
mb
S
190°
14
mph
0.00"
1:15 PM 72° 64° 78
%
10
mi
1005.8
mb
2,100
ft
SSW
210°
15
mph
0.00"
12:55 PM 70° 64° 83
%
10
mi
1006.1
mb
1,900
ft
SW
230°
9
mph
0.00"
12:35 PM 70° 64° 83
%
10
mi
1006.4
mb
1,800
ft
SW
230°
11
mph
0.00"
12:15 PM 68° 64° 88
%
10
mi
1006.8
mb
1,700
ft
SSW
210°
9
mph
0.00"